Location: Cartignies
(50.0929°N, 3.8447°E)
Time: 14:57:54
(UTC+00:00)

CZ-2D R/B - Pass Details

Date: 12 January 2026
Orbit: 388 x 398 km, 97.4° (Epoch: 16 February)

Event Time Altitude Azimuth Distance (km) Brightness Sun altitude
Rises 16:43:13 0° 143° (SE) 2,349 6.4 -5.9°
Reaches altitude 10° 16:45:19 10° 132° (SE) 1,492 5.3 -6.2°
Maximum altitude 16:48:10 30° 69° (ENE) 774 3.5 -6.6°
Drops below altitude 10° 16:51:02 10° 6° (N) 1,502 5.3 -7.0°
Sets 16:53:10 0° 356° (N) 2,369 6.3 -7.3°
